Location: Eboldshausen
(51.7766°N, 10.0050°E)
Time: 16:23:49
(UTC+00:00)

Cosmos 2227 Rocket - Pass Details

Date: 15 November 2025
Orbit: 839 x 842 km, 71.0° (Epoch: 12 December)

Event Time Altitude Azimuth Distance (km) Brightness Sun altitude
Rises 16:29:51 0° 284° (WNW) 3,399 6.4 -9.4°
Reaches altitude 10° 16:33:43 10° 310° (NW) 2,466 5.1 -9.9°
Maximum altitude 16:36:28 14° 340° (NNW) 2,218 4.4 -10.3°
Drops below altitude 10° 16:39:14 10° 10° (N) 2,468 4.4 -10.8°
Enters shadow 16:41:49 - 29° (NNE) 3,043 4.7 -11.1°
